Change the Weather History Date:

Friday, February 15, 2013

  Actual Average Record
Temperature  
Mean Temperature 46 °F -  
Max Temperature 57 °F 63 °F 82 °F (1945)
Min Temperature 36 °F 41 °F 23 °F (1943)
Degree Days  
Heating Degree Days 18    
Moisture  
Dew Point 36 °F    
Average Humidity 70    
Maximum Humidity 100    
Minimum Humidity 41    
Precipitation  
Precipitation 0.00 in - - ()
Sea Level Pressure  
Sea Level Pressure 30.24 in    
Wind  
Wind Speed 4 mph (NW)    
Max Wind Speed 14 mph    
Max Gust Speed 20 mph    
Visibility 10 miles    
Events Rain    
Averages and records for this station are not official NWS values.
T = Trace of Precipitation, MM = Missing Value Source: NWS Daily Summary

Daily Weather History Graph

Daily Weather History Graph

Search for Another Location

Airport or City:

Trip Planner

Search our weather history database for the weather conditions in past years. The results will help you decide how hot, cold, wet, or windy it might be!

Date:

Astronomy

Feb. 15, 2013 Rise Set
Actual Time 6:52 AM CST 5:56 PM CST
Civil Twilight 6:27 AM CST 6:21 PM CST
Nautical Twilight 5:58 AM CST 6:50 PM CST
Astronomical Twilight 5:30 AM CST 7:19 PM CST
Moon 9:51 AM CST (2/15) 11:34 PM CST (2/15)
Length of Visible Light 11h 53m
Length of Day
11h 03m
Waxing Crescent, 30% of the Moon is Illuminated
Feb 15
Waxing Crescent
Feb 17
First Quarter
Feb 25
Full
Mar 4
Last Quarter
Mar 11
New

Hourly Weather History & Observations

Time (CST) Temp. Windchill Dew Point Humidity Pressure Visibility Wind Dir Wind Speed Gust Speed Precip Events Conditions
12:15 AM 37.0 °F - 37.0 °F 100% 30.13 in 10.0 mi Calm Calm - N/A   Clear
12:35 AM 36.3 °F - 36.3 °F 100% 30.13 in 10.0 mi Calm Calm - N/A   Clear
12:55 AM 38.3 °F 34.8 °F 38.3 °F 100% 30.14 in 10.0 mi South 4.6 mph - N/A   Clear
1:15 AM 38.7 °F 36.3 °F 38.7 °F 100% 30.15 in 10.0 mi SSW 3.5 mph - N/A   Clear
1:55 AM 39.2 °F - 37.4 °F 93% 30.15 in 10.0 mi Calm Calm - N/A   Clear
2:15 AM 38.3 °F 34.8 °F 37.6 °F 97% 30.16 in 10.0 mi SW 4.6 mph - N/A   Clear
2:35 AM 41.0 °F 38.0 °F 37.2 °F 86% 30.16 in 10.0 mi SW 4.6 mph - N/A   Clear
2:55 AM 41.9 °F 38.2 °F 37.0 °F 83% 30.16 in 10.0 mi SW 5.8 mph - N/A   Clear
3:15 AM 42.8 °F 39.3 °F 37.0 °F 80% 30.16 in 10.0 mi SW 5.8 mph - N/A   Clear
3:35 AM 42.3 °F 40.5 °F 36.9 °F 81% 30.16 in 10.0 mi SW 3.5 mph - N/A   Clear
3:55 AM 42.8 °F 41.1 °F 36.9 °F 80% 30.16 in 10.0 mi SW 3.5 mph - N/A   Clear
4:15 AM 38.1 °F - 37.0 °F 96% 30.16 in 10.0 mi Calm Calm - N/A   Clear
4:35 AM 36.0 °F - 36.0 °F 100% 30.16 in 10.0 mi Calm Calm - N/A   Clear
4:55 AM 36.3 °F 30.8 °F 36.3 °F 100% 30.19 in 10.0 mi NNW 6.9 mph 17.3 mph N/A   Clear
5:15 AM 39.4 °F - 37.8 °F 94% 30.19 in 10.0 mi Calm Calm - N/A   Clear
5:35 AM 37.9 °F 35.5 °F 37.8 °F 99% 30.21 in 10.0 mi WNW 3.5 mph - N/A   Clear
5:55 AM 38.8 °F - 36.7 °F 92% 30.21 in 10.0 mi Calm Calm - N/A   Clear
6:15 AM 38.3 °F - 37.0 °F 95% 30.22 in 10.0 mi Calm Calm - N/A   Clear
6:35 AM 39.9 °F 37.8 °F 35.8 °F 85% 30.22 in 10.0 mi North 3.5 mph - N/A   Clear
6:55 AM 39.6 °F - 35.4 °F 85% 30.22 in 10.0 mi Calm Calm - N/A   Clear
7:15 AM 39.9 °F 36.7 °F 35.6 °F 85% 30.24 in 10.0 mi North 4.6 mph - N/A   Clear
7:35 AM 41.7 °F 37.3 °F 36.5 °F 82% 30.24 in 10.0 mi North 6.9 mph - N/A   Clear
7:55 AM 43.7 °F 40.3 °F 37.0 °F 77% 30.25 in 10.0 mi North 5.8 mph - N/A   Clear
8:15 AM 45.3 °F 41.1 °F 37.6 °F 74% 30.26 in 10.0 mi North 8.1 mph - N/A   Clear
8:35 AM 47.3 °F - 36.5 °F 66% 30.26 in 10.0 mi NNE 9.2 mph - N/A   Clear
8:55 AM 49.1 °F - 35.6 °F 60% 30.26 in 10.0 mi NNE 10.4 mph - N/A   Clear
9:15 AM 51.4 °F - 32.9 °F 49% 30.26 in 10.0 mi NNE 12.7 mph 19.6 mph N/A   Clear
9:35 AM 52.9 °F - 31.8 °F 45% 30.26 in 7.0 mi NE 11.5 mph 19.6 mph N/A   Clear
9:55 AM 54.1 °F - 31.6 °F 42% 30.27 in 10.0 mi NNE 11.5 mph 19.6 mph N/A   Clear
10:15 AM 55.6 °F - 32.4 °F 41% 30.27 in 10.0 mi North 11.5 mph 17.3 mph N/A   Clear
10:35 AM 56.3 °F - 33.3 °F 42% 30.27 in 10.0 mi NE 11.5 mph 16.1 mph N/A   Clear
10:55 AM 57.2 °F - 34.3 °F 42% 30.26 in 10.0 mi North 9.2 mph 19.6 mph N/A   Clear
11:15 AM 56.8 °F - 34.0 °F 42% 30.27 in 10.0 mi North 6.9 mph 17.3 mph N/A   Clear
11:35 AM 57.2 °F - 33.6 °F 41% 30.26 in 10.0 mi NNW 9.2 mph - N/A   Mostly Cloudy
11:55 AM 57.4 °F - 34.2 °F 42% 30.26 in 10.0 mi NNE 9.2 mph - N/A   Overcast
12:15 PM 57.7 °F - 34.3 °F 41% 30.25 in 10.0 mi North 13.8 mph - N/A   Overcast
12:35 PM 56.7 °F - 34.5 °F 43% 30.25 in 10.0 mi NNW 9.2 mph - N/A   Overcast
12:55 PM 56.3 °F - 35.1 °F 45% 30.25 in 10.0 mi NNW 10.4 mph 16.1 mph N/A   Overcast
1:15 PM 55.0 °F - 34.5 °F 46% 30.24 in 10.0 mi NNW 8.1 mph - N/A   Overcast
1:35 PM 54.5 °F - 35.8 °F 49% 30.24 in 10.0 mi NNW 12.7 mph 18.4 mph N/A   Overcast
1:55 PM 52.3 °F - 37.8 °F 58% 30.24 in 10.0 mi NNW 10.4 mph 18.4 mph N/A   Light Drizzle
2:15 PM 50.2 °F - 41.4 °F 72% 30.25 in 10.0 mi NW 5.8 mph - N/A Rain Light Rain
2:35 PM 49.8 °F - 44.1 °F 81% 30.24 in 10.0 mi West 3.5 mph - N/A Rain Light Rain
2:55 PM 49.3 °F - 44.1 °F 82% 30.24 in 10.0 mi West 3.5 mph - N/A   Overcast
3:15 PM 50.2 °F - 43.3 °F 77% 30.24 in 10.0 mi West 3.5 mph - N/A   Overcast
3:35 PM 50.9 °F - 42.4 °F 73% 30.24 in 10.0 mi West 5.8 mph - N/A   Overcast
3:55 PM 50.9 °F - 42.1 °F 72% 30.23 in 10.0 mi Calm Calm - N/A   Overcast
4:15 PM 51.1 °F - 42.8 °F 73% 30.24 in 10.0 mi West 3.5 mph - N/A   Overcast
4:35 PM 51.1 °F - 41.4 °F 69% 30.23 in 10.0 mi Calm Calm - N/A   Overcast
4:55 PM 50.9 °F - 40.8 °F 68% 30.23 in 10.0 mi West 3.5 mph - N/A   Overcast
5:15 PM 50.7 °F - 40.3 °F 67% 30.24 in 10.0 mi Calm Calm - N/A   Overcast
5:35 PM 50.0 °F - 43.0 °F 77% 30.24 in 10.0 mi WSW 3.5 mph - N/A   Overcast
5:55 PM 49.5 °F - 43.5 °F 80% 30.24 in 10.0 mi West 3.5 mph - N/A   Overcast
6:15 PM 49.1 °F - 43.3 °F 81% 30.24 in 10.0 mi Calm Calm - N/A   Overcast
6:35 PM 48.6 °F - 43.2 °F 82% 30.24 in 10.0 mi Calm Calm - N/A   Overcast
6:55 PM 48.2 °F - 43.0 °F 82% 30.25 in 10.0 mi Calm Calm - N/A   Mostly Cloudy
7:15 PM 47.8 °F - 42.4 °F 82% 30.26 in 10.0 mi Calm Calm - N/A   Scattered Clouds
7:35 PM 47.8 °F - 41.5 °F 79% 30.26 in 10.0 mi NW 3.5 mph - N/A   Scattered Clouds
7:55 PM 47.3 °F - 41.2 °F 79% 30.26 in 10.0 mi NW 3.5 mph - N/A   Scattered Clouds
8:15 PM 47.1 °F - 39.0 °F 73% 30.27 in 10.0 mi NNW 5.8 mph - N/A   Mostly Cloudy
8:35 PM 47.3 °F - 31.8 °F 55% 30.28 in 10.0 mi NNW 5.8 mph - N/A   Mostly Cloudy
8:55 PM 46.6 °F - 32.0 °F 57% 30.29 in 10.0 mi NW 5.8 mph - N/A   Overcast
9:15 PM 46.0 °F 42.5 °F 30.7 °F 55% 30.29 in 10.0 mi NNW 6.9 mph - N/A   Mostly Cloudy
9:35 PM 46.0 °F 41.0 °F 25.0 °F 44% 30.30 in 10.0 mi NNW 10.4 mph 17.3 mph N/A   Mostly Cloudy
9:55 PM 45.5 °F 41.8 °F 23.0 °F 41% 30.31 in 10.0 mi NNW 6.9 mph - N/A   Overcast
10:15 PM 44.6 °F 40.7 °F 23.0 °F 43% 30.31 in 10.0 mi NNW 6.9 mph - N/A   Mostly Cloudy
10:35 PM 43.7 °F 39.1 °F 23.0 °F 44% 30.31 in 10.0 mi NNW 8.1 mph - N/A   Scattered Clouds
10:55 PM 43.0 °F 38.8 °F 23.4 °F 46% 30.31 in 10.0 mi NNW 6.9 mph - N/A   Scattered Clouds
11:15 PM 42.4 °F 38.1 °F 23.7 °F 48% 30.32 in 10.0 mi North 6.9 mph - N/A   Mostly Cloudy
11:55 PM 41.0 °F 37.1 °F 23.9 °F 51% 30.32 in 10.0 mi NNW 5.8 mph - N/A   Scattered Clouds